This demonstration page uses our WeatherBlox Daily Observations layout. Learn more.

Left ArrowRight Arrow

40.92945, -100.16068

Hourly Observations for July 24, 2019

Temp ( °F °C ) Dew Point ( °F °C ) Humidity (%) Winds ( mph kmh ) Pressure ( in mb ) Visibility ( mi km ) Precip ( " mm )
12:15 am 00:15 Clear 64 18 59 15 83 83 SE 10 17 30.17 1022 10 16 N/A
12:35 am 00:35 Clear 64 17.6 58 14.7 83 83 SE 10 17 30.18 1022 10 16 N/A
12:55 am 00:55 Clear 63 17.4 58 14.5 83 83 ESE 8 13 30.18 1022 10 16 N/A
1:15 am 01:15 Clear 63 17 58 14.4 85 85 SE 8 13 30.18 1022 10 16 N/A
1:35 am 01:35 Clear 62 16.8 57 14.1 84 84 SE 8 13 30.18 1022 10 16 N/A
2:15 am 02:15 Mostly Cloudy 62 16.7 57 14.1 85 85 SE 8 13 30.18 1022 10 16 N/A
2:35 am 02:35 Partly Cloudy 60 15.8 58 14.2 90 90 SSE 6 9 30.19 1022 10 16 N/A
2:55 am 02:55 Partly Cloudy 61 16.1 57 14.1 88 88 SSE 8 13 30.18 1022 10 16 N/A
3:15 am 03:15 Partly Cloudy 60 15.6 57 14 90 90 SSE 9 15 30.18 1022 10 16 N/A
3:35 am 03:35 Partly Cloudy 61 16 57 13.7 86 86 SE 7 11 30.18 1022 10 16 N/A
3:55 am 03:55 Partly Cloudy 60 15.6 57 13.7 89 89 SSE 8 13 30.17 1022 10 16 N/A
4:15 am 04:15 Partly Cloudy 60 15.6 56 13.6 88 88 SSE 7 11 30.18 1022 10 16 N/A
4:35 am 04:35 Partly Cloudy 60 15.5 56 13.5 88 88 SSE 7 11 30.17 1022 10 16 N/A
4:55 am 04:55 Mostly Cloudy 60 15.7 56 13.3 86 86 SE 7 11 30.17 1022 10 16 N/A
5:55 am 05:55 Mostly Cloudy 60 15.5 56 13.2 86 86 SE 5 7 30.19 1022 10 16 N/A
6:35 am 06:35 Mostly Cloudy 60 15.5 56 13.2 86 86 SE 7 11 30.19 1022 10 16 N/A
6:55 am 06:55 Partly Cloudy 59 15.2 56 13.3 89 89 SSE 7 11 30.19 1022 10 16 N/A
7:15 am 07:15 Partly Cloudy 60 15.3 56 13.5 89 89 SSE 8 13 30.19 1022 10 16 N/A
7:35 am 07:35 Partly Cloudy 60 15.6 56 13.5 87 87 SSE 10 17 30.19 1022 10 16 N/A
7:55 am 07:55 Sunny 62 16.5 57 13.7 84 84 SSE 10 17 30.18 1022 10 16 N/A
8:15 am 08:15 Sunny 63 17 57 13.8 82 82 SSE 10 17 30.18 1022 10 16 N/A
8:35 am 08:35 Sunny 64 17.8 57 13.8 78 78 SSE 13 20 30.17 1022 10 16 N/A
8:55 am 08:55 Sunny 64 18 57 13.9 77 77 SSE 12 19 30.16 1021 10 16 N/A
9:15 am 09:15 Sunny 65 18.6 57 14 75 75 SSE 15 24 30.14 1021 10 16 N/A
9:35 am 09:35 Sunny 67 19.7 58 14.7 73 73 SSE 13 20 30.13 1020 10 16 N/A
9:55 am 09:55 Sunny 68 19.8 58 14.4 71 71 SE 15 24 30.12 1020 10 16 N/A
10:15 am 10:15 undefined 70 20.9 59 14.8 68 68 SSE 15 24 30.10 1019 10 16 N/A
10:35 am 10:35 undefined 71 21.7 59 15.2 67 67 SSE 13 20 30.09 1019 10 16 N/A
10:55 am 10:55 Sunny 72 22.1 59 14.9 64 64 SSE 13 20 30.08 1019 10 16 N/A
11:15 am 11:15 Sunny 73 22.7 59 15.2 63 63 SSE 14 22 30.07 1018 10 16 N/A
11:35 am 11:35 Sunny 74 23.2 60 15.3 61 61 SSE 12 19 30.06 1018 10 16 N/A
11:55 am 11:55 Sunny 75 23.8 61 16 62 62 SSE 13 20 30.05 1018 10 16 N/A
12:15 pm 12:15 Sunny 76 24.2 61 16.1 61 61 SSE 16 26 30.04 1017 10 16 N/A
12:55 pm 12:55 Sunny 76 24.6 61 16.3 60 60 S 14 22 30.01 1016 10 16 N/A
1:35 pm 13:35 Sunny 77 25.2 62 16.9 60 60 S 15 24 30.00 1016 10 16 N/A
1:55 pm 13:55 Sunny 78 25.6 64 17.5 61 61 S 15 24 29.99 1016 10 16 N/A
2:15 pm 14:15 Sunny 79 25.9 64 17.6 60 60 SSE 13 20 29.98 1015 10 16 N/A
3:15 pm 15:15 Sunny 80 26.8 63 17.3 56 56 S 17 28 29.96 1015 10 16 N/A
3:35 pm 15:35 Sunny 81 27.1 63 17.3 55 55 SSE 17 28 29.95 1014 10 16 N/A
3:55 pm 15:55 Sunny 81 27.3 63 17.1 54 54 SSE 17 28 29.94 1014 10 16 N/A
4:15 pm 16:15 Sunny 82 27.6 63 17.4 54 54 SSE 15 24 29.93 1013 10 16 N/A
4:35 pm 16:35 Sunny 82 27.6 63 17 52 52 SSE 17 28 29.92 1013 10 16 N/A
4:55 pm 16:55 Sunny 82 28 63 17.3 52 52 SSE 15 24 29.91 1013 10 16 N/A
5:15 pm 17:15 Sunny 82 27.8 63 17.1 52 52 SSE 17 28 29.91 1013 10 16 N/A
5:35 pm 17:35 Sunny 82 27.5 63 17.4 54 54 SE 18 30 29.91 1013 10 16 N/A
5:55 pm 17:55 Sunny 80 26.7 62 16.6 54 54 SSE 16 26 29.92 1013 10 16 N/A
6:15 pm 18:15 Sunny 82 27.5 64 17.6 55 55 SSE 14 22 29.90 1012 10 16 N/A
6:35 pm 18:35 Sunny 82 27.6 63 17.2 53 53 SE 13 20 29.89 1012 10 16 N/A
6:55 pm 18:55 Sunny 81 27.3 62 16.9 53 53 SSE 15 24 29.89 1012 10 16 N/A
7:15 pm 19:15 Sunny 81 27.1 61 16.2 51 51 SE 15 24 29.89 1012 10 16 N/A
7:30 pm 19:30 Sunny 80 26.8 61 16.1 52 52 SE 15 24 29.89 1012 10 16 N/A
7:55 pm 19:55 Sunny 79 26.2 62 16.4 55 55 SE 14 22 29.89 1012 10 16 N/A
8:15 pm 20:15 Sunny 78 25.5 63 17.3 61 61 SE 8 13 29.90 1012 10 16 N/A
8:35 pm 20:35 Sunny 77 24.8 62 16.7 61 61 SE 10 17 29.90 1013 10 16 N/A
8:55 pm 20:55 Sunny 76 24.2 62 16.6 63 63 SE 10 17 29.91 1013 10 16 N/A
9:15 pm 21:15 Clear 74 23.5 61 16.1 63 63 SE 10 17 29.91 1013 10 16 N/A
9:35 pm 21:35 Clear 74 23.1 61 15.9 64 64 SE 13 20 29.92 1013 10 16 N/A
9:55 pm 21:55 Clear 73 23 60 15.7 64 64 SE 12 19 29.92 1013 10 16 N/A
10:15 pm 22:15 Clear 73 22.6 60 15.6 65 65 SSE 13 20 29.92 1013 10 16 N/A
10:35 pm 22:35 Clear 72 22.1 60 15.4 66 66 SSE 12 19 29.93 1014 10 16 N/A
10:55 pm 22:55 Clear 72 22 59 15 65 65 SSE 12 19 29.93 1014 10 16 N/A
11:15 pm 23:15 Clear 72 22 58 14.6 63 63 SSE 13 20 29.94 1014 10 16 N/A
11:35 pm 23:35 Clear 72 22.1 58 14.3 61 61 SSE 13 20 29.95 1014 10 16 N/A
11:55 pm 23:55 Clear 72 22 57 14.1 61 61 SSE 12 19 29.95 1014 10 16 N/A

Powered by AerisWeather